TimeEDT,TemperatureF,Dew PointF,Humidity,Sea Level PressureIn,VisibilityMPH,Wind Direction,Wind SpeedMPH,Gust SpeedMPH,PrecipitationIn,Events,Conditions,WindDirDegrees,DateUTC
12:53 AM,70.0,69.1,97,30.03,10.0,Calm,Calm,-,N/A,,Clear,0,2013-11-01 04:53:00
1:53 AM,70.0,69.1,97,30.02,10.0,Calm,Calm,-,N/A,,Clear,0,2013-11-01 05:53:00
2:53 AM,70.0,69.1,97,30.00,10.0,Calm,Calm,-,N/A,,Clear,0,2013-11-01 06:53:00
3:53 AM,69.1,68.0,96,30.00,10.0,Calm,Calm,-,N/A,,Clear,0,2013-11-01 07:53:00
4:53 AM,66.9,66.9,100,29.99,10.0,Calm,Calm,-,N/A,,Clear,0,2013-11-01 08:53:00
5:05 AM,66.9,66.0,97,29.99,1.8,Calm,Calm,-,N/A,,Clear,0,2013-11-01 09:05:00
5:08 AM,66.0,66.0,100,29.99,0.8,Calm,Calm,-,N/A,,Mist,0,2013-11-01 09:08:00
5:18 AM,66.0,66.0,100,29.99,1.5,East,4.6,-,N/A,,Scattered Clouds,80,2013-11-01 09:18:00
5:21 AM,66.0,66.0,100,30.00,4.0,East,4.6,-,N/A,,Partly Cloudy,80,2013-11-01 09:21:00
5:53 AM,66.0,64.9,96,30.00,7.0,ENE,3.5,-,N/A,,Clear,70,2013-11-01 09:53:00
6:07 AM,66.0,64.9,96,30.00,2.5,Calm,Calm,-,N/A,,Clear,0,2013-11-01 10:07:00
6:16 AM,64.9,64.9,100,30.00,5.0,East,3.5,-,N/A,,Clear,80,2013-11-01 10:16:00
6:53 AM,66.0,64.9,96,30.01,4.0,Calm,Calm,-,N/A,,Clear,0,2013-11-01 10:53:00
7:53 AM,64.9,64.9,100,30.02,7.0,SE,5.8,-,N/A,,Partly Cloudy,140,2013-11-01 11:53:00
8:53 AM,72.0,71.1,97,30.02,10.0,SSE,3.5,-,N/A,,Clear,160,2013-11-01 12:53:00
9:53 AM,78.1,72.0,81,30.02,10.0,SSE,8.1,-,N/A,,Clear,150,2013-11-01 13:53:00
10:53 AM,82.0,71.1,69,30.01,10.0,South,11.5,-,N/A,,Clear,170,2013-11-01 14:53:00
11:53 AM,84.9,69.1,59,30.01,10.0,SW,11.5,-,N/A,,Scattered Clouds,230,2013-11-01 15:53:00
12:53 PM,84.9,66.9,55,29.98,10.0,SSW,11.5,-,N/A,,Scattered Clouds,200,2013-11-01 16:53:00
1:53 PM,84.9,71.1,63,29.96,10.0,West,12.7,-,N/A,,Clear,260,2013-11-01 17:53:00
2:53 PM,84.9,71.1,63,29.94,10.0,WSW,13.8,-,N/A,,Scattered Clouds,240,2013-11-01 18:53:00
3:53 PM,82.9,71.1,67,29.94,10.0,WSW,12.7,-,N/A,,Clear,240,2013-11-01 19:53:00
4:53 PM,82.9,72.0,69,29.93,10.0,WSW,11.5,-,N/A,,Clear,250,2013-11-01 20:53:00
5:53 PM,79.0,72.0,79,29.93,10.0,WSW,11.5,-,N/A,,Clear,250,2013-11-01 21:53:00
6:53 PM,78.1,73.0,84,29.94,10.0,WSW,5.8,-,N/A,,Clear,250,2013-11-01 22:53:00
7:53 PM,75.9,73.0,91,29.94,10.0,SW,3.5,-,N/A,,Clear,220,2013-11-01 23:53:00
8:53 PM,73.0,72.0,96,29.95,10.0,SSW,3.5,-,N/A,,Clear,200,2013-11-02 00:53:00
9:53 PM,72.0,71.1,97,29.96,10.0,South,3.5,-,N/A,,Clear,180,2013-11-02 01:53:00
10:17 PM,73.9,73.0,97,29.95,10.0,SW,5.8,-,N/A,,Partly Cloudy,220,2013-11-02 02:17:00
10:53 PM,73.0,72.0,96,29.96,10.0,SSW,6.9,-,N/A,,Clear,200,2013-11-02 02:53:00
11:53 PM,72.0,71.1,97,29.95,10.0,SSW,5.8,-,N/A,,Clear,200,2013-11-02 03:53:00